TimeEST,TemperatureF,Dew PointF,Humidity,Sea Level PressureIn,VisibilityMPH,Wind Direction,Wind SpeedMPH,Gust SpeedMPH,PrecipitationIn,Events,Conditions,WindDirDegrees,DateUTC
12:16 AM,26.1,19.8,77,30.33,10.0,NNW,13.8,20.7,N/A,,Overcast,330,2013-11-12 05:16:00
12:35 AM,26.2,19.9,77,30.34,10.0,NNW,13.8,24.2,N/A,,Overcast,330,2013-11-12 05:35:00
12:56 AM,26.2,19.4,75,30.35,10.0,NNW,17.3,23.0,N/A,,Overcast,330,2013-11-12 05:56:00
1:15 AM,26.1,19.4,76,30.35,10.0,NNW,15.0,23.0,N/A,,Overcast,340,2013-11-12 06:15:00
1:35 AM,25.7,18.7,75,30.35,10.0,North,17.3,27.6,N/A,,Scattered Clouds,350,2013-11-12 06:35:00
1:56 AM,26.1,18.9,74,30.35,10.0,North,15.0,26.5,N/A,,Scattered Clouds,350,2013-11-12 06:56:00
2:15 AM,26.1,19.0,75,30.36,10.0,NNW,12.7,24.2,N/A,,Scattered Clouds,340,2013-11-12 07:15:00
2:35 AM,26.1,20.1,78,30.37,10.0,NNW,10.4,19.6,N/A,Snow,Light Snow,330,2013-11-12 07:35:00
2:56 AM,26.1,21.2,82,30.38,10.0,NNW,11.5,20.7,N/A,,Overcast,330,2013-11-12 07:56:00
3:15 AM,26.4,21.2,81,30.39,10.0,NNW,16.1,23.0,N/A,,Mostly Cloudy,330,2013-11-12 08:15:00
3:35 AM,26.2,21.2,81,30.40,10.0,NW,10.4,18.4,N/A,,Mostly Cloudy,310,2013-11-12 08:35:00
3:56 AM,26.2,21.6,82,30.40,10.0,NW,10.4,17.3,N/A,,Overcast,310,2013-11-12 08:56:00
4:15 AM,26.4,21.2,81,30.41,10.0,NW,5.8,20.7,N/A,,Overcast,320,2013-11-12 09:15:00
4:35 AM,26.1,19.8,77,30.41,10.0,NW,11.5,19.6,N/A,,Mostly Cloudy,310,2013-11-12 09:35:00
4:56 AM,26.2,18.9,74,30.42,10.0,NW,13.8,20.7,N/A,,Overcast,320,2013-11-12 09:56:00
5:15 AM,26.2,18.5,73,30.42,10.0,NW,13.8,21.9,N/A,,Overcast,310,2013-11-12 10:15:00
5:35 AM,26.4,18.5,72,30.43,10.0,NW,10.4,17.3,N/A,,Overcast,310,2013-11-12 10:35:00
5:55 AM,26.2,18.3,72,30.43,10.0,NW,8.1,16.1,N/A,,Overcast,320,2013-11-12 10:55:00
6:15 AM,26.2,19.2,75,30.43,10.0,NW,11.5,20.7,N/A,,Overcast,310,2013-11-12 11:15:00
6:35 AM,26.1,19.4,76,30.43,10.0,NW,9.2,-,N/A,,Overcast,310,2013-11-12 11:35:00
6:55 AM,25.9,19.4,76,30.44,10.0,NW,12.7,-,N/A,,Overcast,310,2013-11-12 11:55:00
7:16 AM,25.7,19.0,76,30.44,10.0,NW,6.9,-,N/A,,Overcast,310,2013-11-12 12:16:00
7:35 AM,25.7,19.2,76,30.45,10.0,NW,8.1,16.1,N/A,Snow,Light Snow,320,2013-11-12 12:35:00
7:55 AM,25.5,19.2,77,30.46,10.0,NW,12.7,19.6,N/A,,Overcast,320,2013-11-12 12:55:00
8:15 AM,25.5,18.9,76,30.46,10.0,NW,15.0,23.0,N/A,Snow,Light Snow,320,2013-11-12 13:15:00
8:35 AM,25.5,21.7,86,30.47,2.5,WNW,12.7,19.6,N/A,Snow,Light Snow,290,2013-11-12 13:35:00
8:55 AM,24.8,21.6,87,30.47,1.5,WNW,15.0,20.7,N/A,Snow,Light Snow,300,2013-11-12 13:55:00
9:15 AM,24.8,21.0,86,30.47,1.8,WNW,12.7,20.7,N/A,Snow,Light Snow,300,2013-11-12 14:15:00
9:35 AM,25.3,20.5,82,30.47,5.0,WNW,11.5,19.6,N/A,Snow,Light Snow,300,2013-11-12 14:35:00
9:55 AM,25.5,19.4,78,30.47,4.0,NW,12.7,21.9,N/A,Snow,Light Snow,310,2013-11-12 14:55:00
10:16 AM,25.5,18.7,75,30.48,3.0,NW,12.7,25.3,N/A,Snow,Light Snow,320,2013-11-12 15:16:00
10:35 AM,24.8,21.2,86,30.49,0.5,NNW,11.5,-,N/A,Snow,Light Snow,330,2013-11-12 15:35:00
10:56 AM,25.9,20.5,80,30.49,4.0,NW,12.7,21.9,N/A,Snow,Light Snow,310,2013-11-12 15:56:00
11:15 AM,26.4,20.5,78,30.49,7.0,NW,11.5,16.1,N/A,Snow,Light Snow,310,2013-11-12 16:15:00
11:35 AM,27.1,20.5,76,30.49,4.0,NNW,10.4,18.4,N/A,Snow,Light Snow,330,2013-11-12 16:35:00
11:56 AM,24.8,20.5,84,30.49,0.8,NW,6.9,-,N/A,Snow,Light Snow,320,2013-11-12 16:56:00
12:15 PM,26.1,18.5,73,30.48,10.0,NW,10.4,19.6,N/A,,Scattered Clouds,320,2013-11-12 17:15:00
12:35 PM,27.3,18.9,70,30.47,10.0,NW,8.1,16.1,N/A,,Scattered Clouds,320,2013-11-12 17:35:00
12:56 PM,27.3,17.8,67,30.47,7.0,NW,11.5,18.4,N/A,,Overcast,310,2013-11-12 17:56:00
1:15 PM,27.7,17.2,65,30.47,10.0,WNW,11.5,19.6,N/A,,Overcast,290,2013-11-12 18:15:00
1:35 PM,27.5,17.1,65,30.47,10.0,WNW,11.5,19.6,N/A,Snow,Light Snow,300,2013-11-12 18:35:00
1:56 PM,28.2,16.7,62,30.46,10.0,WNW,12.7,17.3,N/A,,Overcast,300,2013-11-12 18:56:00
2:15 PM,28.4,15.1,57,30.46,10.0,WNW,15.0,23.0,N/A,,Overcast,300,2013-11-12 19:15:00
2:35 PM,28.4,16.0,60,30.46,10.0,WNW,9.2,21.9,N/A,,Mostly Cloudy,300,2013-11-12 19:35:00
2:56 PM,27.5,17.4,66,30.46,10.0,WNW,12.7,19.6,N/A,,Overcast,290,2013-11-12 19:56:00
3:15 PM,28.4,16.5,61,30.45,10.0,WNW,13.8,19.6,N/A,,Overcast,300,2013-11-12 20:15:00
3:36 PM,28.8,14.7,56,30.45,10.0,WNW,8.1,19.6,N/A,,Overcast,300,2013-11-12 20:36:00
3:55 PM,28.0,14.5,57,30.45,10.0,WNW,11.5,18.4,N/A,,Overcast,290,2013-11-12 20:55:00
4:15 PM,27.5,15.3,60,30.45,10.0,WNW,10.4,19.6,N/A,,Mostly Cloudy,300,2013-11-12 21:15:00
4:36 PM,27.5,16.0,62,30.45,10.0,WNW,10.4,-,N/A,,Mostly Cloudy,290,2013-11-12 21:36:00
4:55 PM,27.3,16.3,63,30.45,10.0,West,10.4,-,N/A,,Mostly Cloudy,280,2013-11-12 21:55:00
5:15 PM,27.1,20.1,75,30.46,10.0,WNW,11.5,-,N/A,,Overcast,290,2013-11-12 22:15:00
5:36 PM,27.0,17.4,67,30.46,10.0,WNW,12.7,23.0,N/A,,Overcast,300,2013-11-12 22:36:00
5:55 PM,27.1,16.9,65,30.45,10.0,WNW,10.4,19.6,N/A,,Scattered Clouds,300,2013-11-12 22:55:00
6:15 PM,27.5,16.9,64,30.45,10.0,West,8.1,-,N/A,,Mostly Cloudy,280,2013-11-12 23:15:00
6:36 PM,27.5,18.7,69,30.44,10.0,West,10.4,17.3,N/A,,Mostly Cloudy,270,2013-11-12 23:36:00
6:55 PM,28.0,19.2,70,30.44,10.0,West,10.4,17.3,N/A,,Mostly Cloudy,280,2013-11-12 23:55:00
7:15 PM,28.2,18.7,67,30.43,10.0,West,13.8,18.4,N/A,,Scattered Clouds,270,2013-11-13 00:15:00
7:36 PM,28.8,17.4,63,30.43,10.0,West,12.7,19.6,N/A,,Mostly Cloudy,280,2013-11-13 00:36:00
7:55 PM,29.1,17.2,61,30.42,10.0,WNW,10.4,18.4,N/A,,Overcast,290,2013-11-13 00:55:00
8:15 PM,29.3,16.5,59,30.42,10.0,West,11.5,-,N/A,,Overcast,280,2013-11-13 01:15:00
8:35 PM,29.3,16.5,59,30.42,10.0,WNW,13.8,19.6,N/A,,Overcast,290,2013-11-13 01:35:00
8:55 PM,29.3,16.5,59,30.42,10.0,West,9.2,19.6,N/A,,Overcast,280,2013-11-13 01:55:00
9:15 PM,29.3,16.0,58,30.41,10.0,West,9.2,-,N/A,,Overcast,280,2013-11-13 02:15:00
9:35 PM,29.5,16.7,59,30.40,10.0,West,8.1,-,N/A,,Mostly Cloudy,280,2013-11-13 02:35:00
9:55 PM,29.7,17.8,61,30.40,10.0,NW,10.4,-,N/A,,Overcast,320,2013-11-13 02:55:00
10:15 PM,28.4,16.9,62,30.40,10.0,NW,9.2,-,N/A,,Overcast,310,2013-11-13 03:15:00
10:35 PM,27.5,16.0,62,30.39,10.0,NW,8.1,-,N/A,,Mostly Cloudy,320,2013-11-13 03:35:00
10:55 PM,26.6,15.8,64,30.39,10.0,WNW,6.9,-,N/A,,Clear,300,2013-11-13 03:55:00
11:15 PM,26.6,15.4,63,30.40,10.0,WNW,8.1,-,N/A,,Clear,300,2013-11-13 04:15:00
11:35 PM,26.6,13.3,57,30.40,10.0,WNW,11.5,17.3,N/A,,Clear,300,2013-11-13 04:35:00
11:55 PM,27.0,13.1,56,30.40,10.0,NW,9.2,-,N/A,,Clear,310,2013-11-13 04:55:00